Year,Month,Day,Hour,Minute,Value (Times are PST for temperature in C)
2013,07,15,00,00,14.40
2013,07,15,00,01,14.30
2013,07,15,00,02,14.30
2013,07,15,00,03,14.30
2013,07,15,00,04,14.30
2013,07,15,00,05,14.20
2013,07,15,00,06,14.20
2013,07,15,00,07,14.20
2013,07,15,00,08,14.20
2013,07,15,00,09,14.20
2013,07,15,00,10,14.20
2013,07,15,00,11,14.20
2013,07,15,00,12,14.20
2013,07,15,00,13,14.20
2013,07,15,00,14,14.20
2013,07,15,00,15,14.20
2013,07,15,00,16,14.20
2013,07,15,00,17,14.10
2013,07,15,00,18,14.10
2013,07,15,00,19,14.10
2013,07,15,00,20,14.10
2013,07,15,00,21,14.10
2013,07,15,00,22,14.10
2013,07,15,00,23,14.00
2013,07,15,00,24,14.00
2013,07,15,00,25,14.00
2013,07,15,00,26,14.00
2013,07,15,00,27,14.00
2013,07,15,00,28,13.90
2013,07,15,00,29,13.90
2013,07,15,00,30,13.90
2013,07,15,00,31,13.80
2013,07,15,00,32,13.80
2013,07,15,00,33,13.80
2013,07,15,00,34,13.70
2013,07,15,00,35,13.70
2013,07,15,00,36,13.70
2013,07,15,00,37,13.70
2013,07,15,00,38,13.60
2013,07,15,00,39,13.60
2013,07,15,00,40,13.60
2013,07,15,00,41,13.60
2013,07,15,00,42,13.50
2013,07,15,00,43,13.50
2013,07,15,00,44,13.50
2013,07,15,00,45,13.50
2013,07,15,00,46,13.40
2013,07,15,00,47,13.40
2013,07,15,00,48,13.40
2013,07,15,00,49,13.40
2013,07,15,00,50,13.30
2013,07,15,00,51,13.30
2013,07,15,00,52,13.30
2013,07,15,00,53,13.30
2013,07,15,00,54,13.30
2013,07,15,00,55,13.30
2013,07,15,00,56,13.30
2013,07,15,00,57,13.30
2013,07,15,00,58,13.20
2013,07,15,00,59,13.20
2013,07,15,01,00,13.20
2013,07,15,01,01,13.20
2013,07,15,01,02,13.20
2013,07,15,01,03,13.20
2013,07,15,01,04,13.20
2013,07,15,01,05,13.10
2013,07,15,01,06,13.10
2013,07,15,01,07,13.10
2013,07,15,01,08,13.10
2013,07,15,01,09,13.10
2013,07,15,01,10,13.00
2013,07,15,01,11,13.00
2013,07,15,01,12,13.00
2013,07,15,01,13,12.90
2013,07,15,01,14,12.90
2013,07,15,01,15,12.90
2013,07,15,01,16,12.90
2013,07,15,01,17,12.90
2013,07,15,01,18,12.90
2013,07,15,01,19,12.90
2013,07,15,01,20,12.90
2013,07,15,01,21,12.80
2013,07,15,01,22,12.80
2013,07,15,01,23,12.80
2013,07,15,01,24,12.80
2013,07,15,01,25,12.80
2013,07,15,01,26,12.80
2013,07,15,01,27,12.80
2013,07,15,01,28,12.80
2013,07,15,01,29,12.80
2013,07,15,01,30,12.80
2013,07,15,01,31,12.70
2013,07,15,01,32,12.70
2013,07,15,01,33,12.70
2013,07,15,01,34,12.70
2013,07,15,01,35,12.70
2013,07,15,01,36,12.70
2013,07,15,01,37,12.70
2013,07,15,01,38,12.70
2013,07,15,01,39,12.60
2013,07,15,01,40,12.60
2013,07,15,01,41,12.60
2013,07,15,01,42,12.60
2013,07,15,01,43,12.60
2013,07,15,01,44,12.60
2013,07,15,01,45,12.60
2013,07,15,01,46,12.60
2013,07,15,01,47,12.50
2013,07,15,01,48,12.50
2013,07,15,01,49,12.50
2013,07,15,01,50,12.50
2013,07,15,01,51,12.50
2013,07,15,01,52,12.50
2013,07,15,01,53,12.50
2013,07,15,01,54,12.50
2013,07,15,01,55,12.50
2013,07,15,01,56,12.40
2013,07,15,01,57,12.40
2013,07,15,01,58,12.40
2013,07,15,01,59,12.40
2013,07,15,02,00,12.40
2013,07,15,02,01,12.40
2013,07,15,02,02,12.30
2013,07,15,02,03,12.40
2013,07,15,02,04,12.40
2013,07,15,02,05,12.40
2013,07,15,02,06,12.40
2013,07,15,02,07,12.40
2013,07,15,02,08,12.40
2013,07,15,02,09,12.40
2013,07,15,02,10,12.40
2013,07,15,02,11,12.40
2013,07,15,02,12,12.40
2013,07,15,02,13,12.40
2013,07,15,02,14,12.40
2013,07,15,02,15,12.30
2013,07,15,02,16,12.30
2013,07,15,02,17,12.30
2013,07,15,02,18,12.30
2013,07,15,02,19,12.30
2013,07,15,02,20,12.30
2013,07,15,02,21,12.30
2013,07,15,02,22,12.30
2013,07,15,02,23,12.30
2013,07,15,02,24,12.30
2013,07,15,02,25,12.30
2013,07,15,02,26,12.30
2013,07,15,02,27,12.30
2013,07,15,02,28,12.20
2013,07,15,02,29,12.20
2013,07,15,02,30,12.20
2013,07,15,02,31,12.20
2013,07,15,02,32,12.20
2013,07,15,02,33,12.20
2013,07,15,02,34,12.10
2013,07,15,02,35,12.10
2013,07,15,02,36,12.10
2013,07,15,02,37,12.10
2013,07,15,02,38,12.10
2013,07,15,02,39,12.00
2013,07,15,02,40,12.00
2013,07,15,02,41,11.90
2013,07,15,02,42,11.90
2013,07,15,02,43,11.80
2013,07,15,02,44,11.80
2013,07,15,02,45,11.80
2013,07,15,02,46,11.80
2013,07,15,02,47,11.80
2013,07,15,02,48,11.80
2013,07,15,02,49,11.80
2013,07,15,02,50,11.80
2013,07,15,02,51,11.80
2013,07,15,02,52,11.80
2013,07,15,02,53,11.80
2013,07,15,02,54,11.80
2013,07,15,02,55,11.80
2013,07,15,02,56,11.70
2013,07,15,02,57,11.70
2013,07,15,02,58,11.70
2013,07,15,02,59,11.70
2013,07,15,03,00,11.60
2013,07,15,03,01,11.60
2013,07,15,03,02,11.60
2013,07,15,03,03,11.60
2013,07,15,03,04,11.60
2013,07,15,03,05,11.60
2013,07,15,03,06,11.60
2013,07,15,03,07,11.60
2013,07,15,03,08,11.60
2013,07,15,03,09,11.60
2013,07,15,03,10,11.60
2013,07,15,03,11,11.60
2013,07,15,03,12,11.60
2013,07,15,03,13,11.50
2013,07,15,03,14,11.40
2013,07,15,03,15,11.40
2013,07,15,03,16,11.40
2013,07,15,03,17,11.40
2013,07,15,03,18,11.40
2013,07,15,03,19,11.40
2013,07,15,03,20,11.40
2013,07,15,03,21,11.40
2013,07,15,03,22,11.40
2013,07,15,03,23,11.40
2013,07,15,03,24,11.40
2013,07,15,03,25,11.40
2013,07,15,03,26,11.40
2013,07,15,03,27,11.40
2013,07,15,03,28,11.40
2013,07,15,03,29,11.40
2013,07,15,03,30,11.40
2013,07,15,03,31,11.40
2013,07,15,03,32,11.40
2013,07,15,03,33,11.40
2013,07,15,03,34,11.40
2013,07,15,03,35,11.40
2013,07,15,03,36,11.40
2013,07,15,03,37,11.40
2013,07,15,03,38,11.40
2013,07,15,03,39,11.40
2013,07,15,03,40,11.40
2013,07,15,03,41,11.40
2013,07,15,03,42,11.40
2013,07,15,03,43,11.40
2013,07,15,03,44,11.40
2013,07,15,03,45,11.40
2013,07,15,03,46,11.40
2013,07,15,03,47,11.40
2013,07,15,03,48,11.40
2013,07,15,03,49,11.40
2013,07,15,03,50,11.40
2013,07,15,03,51,11.40
2013,07,15,03,52,11.40
2013,07,15,03,53,11.30
2013,07,15,03,54,11.30
2013,07,15,03,55,11.30
2013,07,15,03,56,11.30
2013,07,15,03,57,11.30
2013,07,15,03,58,11.30
2013,07,15,03,59,11.30
2013,07,15,04,00,11.20
2013,07,15,04,01,11.20
2013,07,15,04,02,11.20
2013,07,15,04,03,11.20
2013,07,15,04,04,11.20
2013,07,15,04,05,11.20
2013,07,15,04,06,11.10
2013,07,15,04,07,11.10
2013,07,15,04,08,11.10
2013,07,15,04,09,11.10
2013,07,15,04,10,11.00
2013,07,15,04,11,10.90
2013,07,15,04,12,10.90
2013,07,15,04,13,10.90
2013,07,15,04,14,10.90
2013,07,15,04,15,10.90
2013,07,15,04,16,10.90
2013,07,15,04,17,10.90
2013,07,15,04,18,10.90
2013,07,15,04,19,10.80
2013,07,15,04,20,10.80
2013,07,15,04,21,10.80
2013,07,15,04,22,10.80
2013,07,15,04,23,10.80
2013,07,15,04,24,10.80
2013,07,15,04,25,10.80
2013,07,15,04,26,10.90
2013,07,15,04,27,10.90
2013,07,15,04,28,10.90
2013,07,15,04,29,10.90
2013,07,15,04,30,10.90
2013,07,15,04,31,10.90
2013,07,15,04,32,10.90
2013,07,15,04,33,10.90
2013,07,15,04,34,10.90
2013,07,15,04,35,10.80
2013,07,15,04,36,10.80
2013,07,15,04,37,10.80
2013,07,15,04,38,10.80
2013,07,15,04,39,10.80
2013,07,15,04,40,10.80
2013,07,15,04,41,10.80
2013,07,15,04,42,10.80
2013,07,15,04,43,10.80
2013,07,15,04,44,10.90
2013,07,15,04,45,10.90
2013,07,15,04,46,10.90
2013,07,15,04,47,10.90
2013,07,15,04,48,10.90
2013,07,15,04,49,10.90
2013,07,15,04,50,10.90
2013,07,15,04,51,10.90
2013,07,15,04,52,10.90
2013,07,15,04,53,10.90
2013,07,15,04,54,10.90
2013,07,15,04,55,10.80
2013,07,15,04,56,10.80
2013,07,15,04,57,10.80
2013,07,15,04,58,10.70
2013,07,15,04,59,10.70
2013,07,15,05,00,10.70
2013,07,15,05,01,10.60
2013,07,15,05,02,10.60
2013,07,15,05,03,10.60
2013,07,15,05,04,10.60
2013,07,15,05,05,10.60
2013,07,15,05,06,10.60
2013,07,15,05,07,10.60
2013,07,15,05,08,10.60
2013,07,15,05,09,10.60
2013,07,15,05,10,10.60
2013,07,15,05,11,10.50
2013,07,15,05,12,10.40
2013,07,15,05,13,10.40
2013,07,15,05,14,10.40
2013,07,15,05,15,10.40
2013,07,15,05,16,10.40
2013,07,15,05,17,10.40
2013,07,15,05,18,10.40
2013,07,15,05,19,10.40
2013,07,15,05,20,10.40
2013,07,15,05,21,10.40
2013,07,15,05,22,10.40
2013,07,15,05,23,10.40
2013,07,15,05,24,10.40
2013,07,15,05,25,10.40
2013,07,15,05,26,10.40
2013,07,15,05,27,10.40
2013,07,15,05,28,10.30
2013,07,15,05,29,10.30
2013,07,15,05,30,10.30
2013,07,15,05,31,10.30
2013,07,15,05,32,10.30
2013,07,15,05,33,10.30
2013,07,15,05,34,10.30
2013,07,15,05,35,10.30
2013,07,15,05,36,10.30
2013,07,15,05,37,10.30
2013,07,15,05,38,10.30
2013,07,15,05,39,10.40
2013,07,15,05,40,10.40
2013,07,15,05,41,10.40
2013,07,15,05,42,10.40
2013,07,15,05,43,10.40
2013,07,15,05,44,10.40
2013,07,15,05,45,10.40
2013,07,15,05,46,10.40
2013,07,15,05,47,10.40
2013,07,15,05,48,10.40
2013,07,15,05,49,10.40
2013,07,15,05,50,10.40
2013,07,15,05,51,10.40
2013,07,15,05,52,10.30
2013,07,15,05,53,10.30
2013,07,15,05,54,10.30
2013,07,15,05,55,10.30
2013,07,15,05,56,10.30
2013,07,15,05,57,10.30
2013,07,15,05,58,10.30
2013,07,15,05,59,10.30
2013,07,15,06,00,10.30
2013,07,15,06,01,10.30
2013,07,15,06,02,10.30
2013,07,15,06,03,10.20
2013,07,15,06,04,10.20
2013,07,15,06,05,10.20
2013,07,15,06,06,10.20
2013,07,15,06,07,10.20
2013,07,15,06,08,10.20
2013,07,15,06,09,10.20
2013,07,15,06,10,10.20
2013,07,15,06,11,10.20
2013,07,15,06,12,10.20
2013,07,15,06,13,10.20
2013,07,15,06,14,10.30
2013,07,15,06,15,10.30
2013,07,15,06,16,10.30
2013,07,15,06,17,10.40
2013,07,15,06,18,10.40
2013,07,15,06,19,10.40
2013,07,15,06,20,10.50
2013,07,15,06,21,10.60
2013,07,15,06,22,10.60
2013,07,15,06,23,10.60
2013,07,15,06,24,10.70
2013,07,15,06,25,10.70
2013,07,15,06,26,10.80
2013,07,15,06,27,10.90
2013,07,15,06,28,11.00
2013,07,15,06,29,11.10
2013,07,15,06,30,11.20
2013,07,15,06,31,11.30
2013,07,15,06,32,11.30
2013,07,15,06,33,11.40
2013,07,15,06,34,11.40
2013,07,15,06,35,11.40
2013,07,15,06,36,11.50
2013,07,15,06,37,11.60
2013,07,15,06,38,11.60
2013,07,15,06,39,11.70
2013,07,15,06,40,11.80
2013,07,15,06,41,11.80
2013,07,15,06,42,11.80
2013,07,15,06,43,11.90
2013,07,15,06,44,11.90
2013,07,15,06,45,11.90
2013,07,15,06,46,11.90
2013,07,15,06,47,11.90
2013,07,15,06,48,12.00
2013,07,15,06,49,12.00
2013,07,15,06,50,12.10
2013,07,15,06,51,12.20
2013,07,15,06,52,12.30
2013,07,15,06,53,12.40
2013,07,15,06,54,12.50
2013,07,15,06,55,12.60
2013,07,15,06,56,12.70
2013,07,15,06,57,12.80
2013,07,15,06,58,13.00
2013,07,15,06,59,13.10
2013,07,15,07,00,13.20
2013,07,15,07,01,13.40
2013,07,15,07,02,13.50
2013,07,15,07,03,13.70
2013,07,15,07,04,13.80
2013,07,15,07,05,13.90
2013,07,15,07,06,13.90
2013,07,15,07,07,13.90
2013,07,15,07,08,13.90
2013,07,15,07,09,13.90
2013,07,15,07,10,14.00
2013,07,15,07,11,14.10
2013,07,15,07,12,14.20
2013,07,15,07,13,14.20
2013,07,15,07,14,14.20
2013,07,15,07,15,14.30
2013,07,15,07,16,14.40
2013,07,15,07,17,14.50
2013,07,15,07,18,14.70
2013,07,15,07,19,14.80
2013,07,15,07,20,14.90
2013,07,15,07,21,15.00
2013,07,15,07,22,15.10
2013,07,15,07,23,15.10
2013,07,15,07,24,15.20
2013,07,15,07,25,15.20
2013,07,15,07,26,15.30
2013,07,15,07,27,15.40
2013,07,15,07,28,15.50
2013,07,15,07,29,15.60
2013,07,15,07,30,15.70
2013,07,15,07,31,15.80
2013,07,15,07,32,15.90
2013,07,15,07,33,16.00
2013,07,15,07,34,16.10
2013,07,15,07,35,16.20
2013,07,15,07,36,16.30
2013,07,15,07,37,16.40
2013,07,15,07,38,16.40
2013,07,15,07,39,16.40
2013,07,15,07,40,16.40
2013,07,15,07,41,16.40
2013,07,15,07,42,16.40
2013,07,15,07,43,16.40
2013,07,15,07,44,16.40
2013,07,15,07,45,16.50
2013,07,15,07,46,16.60
2013,07,15,07,47,16.70
2013,07,15,07,48,16.70
2013,07,15,07,49,16.70
2013,07,15,07,50,16.70
2013,07,15,07,51,16.80
2013,07,15,07,52,16.90
2013,07,15,07,53,16.90
2013,07,15,07,54,17.00
2013,07,15,07,55,17.00
2013,07,15,07,56,17.00
2013,07,15,07,57,17.00
2013,07,15,07,58,17.10
2013,07,15,07,59,17.10
2013,07,15,08,00,17.20
2013,07,15,08,01,17.30
2013,07,15,08,02,17.30
2013,07,15,08,03,17.40
2013,07,15,08,04,17.50
2013,07,15,08,05,17.60
2013,07,15,08,06,17.60
2013,07,15,08,07,17.60
2013,07,15,08,08,17.70
2013,07,15,08,09,17.80
2013,07,15,08,10,17.90
2013,07,15,08,11,17.90
2013,07,15,08,12,18.00
2013,07,15,08,13,18.10
2013,07,15,08,14,18.20
2013,07,15,08,15,18.20
2013,07,15,08,16,18.30
2013,07,15,08,17,18.40
2013,07,15,08,18,18.50
2013,07,15,08,19,18.60
2013,07,15,08,20,18.70
2013,07,15,08,21,18.80
2013,07,15,08,22,18.90
2013,07,15,08,23,19.00
2013,07,15,08,24,19.10
2013,07,15,08,25,19.10
2013,07,15,08,26,19.10
2013,07,15,08,27,19.20
2013,07,15,08,28,19.20
2013,07,15,08,29,19.20
2013,07,15,08,30,19.30
2013,07,15,08,31,19.30
2013,07,15,08,32,19.40
2013,07,15,08,33,19.40
2013,07,15,08,34,19.50
2013,07,15,08,35,19.60
2013,07,15,08,36,19.70
2013,07,15,08,37,19.70
2013,07,15,08,38,19.70
2013,07,15,08,39,19.70
2013,07,15,08,40,19.80
2013,07,15,08,41,19.90
2013,07,15,08,42,19.90
2013,07,15,08,43,20.10
2013,07,15,08,44,20.10
2013,07,15,08,45,20.10
2013,07,15,08,46,20.20
2013,07,15,08,47,20.30
2013,07,15,08,48,20.40
2013,07,15,08,49,20.40
2013,07,15,08,50,20.50
2013,07,15,08,51,20.50
2013,07,15,08,52,20.50
2013,07,15,08,53,20.60
2013,07,15,08,54,20.70
2013,07,15,08,55,20.70
2013,07,15,08,56,20.80
2013,07,15,08,57,20.70
2013,07,15,08,58,20.70
2013,07,15,08,59,20.80
2013,07,15,09,00,20.80
2013,07,15,09,01,20.90
2013,07,15,09,02,21.00
2013,07,15,09,03,21.00
2013,07,15,09,04,21.00
2013,07,15,09,05,21.10
2013,07,15,09,06,21.20
2013,07,15,09,07,21.20
2013,07,15,09,08,21.20
2013,07,15,09,09,21.20
2013,07,15,09,10,21.10
2013,07,15,09,11,21.10
2013,07,15,09,12,21.10
2013,07,15,09,13,21.10
2013,07,15,09,14,21.20
2013,07,15,09,15,21.10
2013,07,15,09,16,21.10
2013,07,15,09,17,21.10
2013,07,15,09,18,21.10
2013,07,15,09,19,21.20
2013,07,15,09,20,21.20
2013,07,15,09,21,21.20
2013,07,15,09,22,21.30
2013,07,15,09,23,21.30
2013,07,15,09,24,21.30
2013,07,15,09,25,21.20
2013,07,15,09,26,21.10
2013,07,15,09,27,21.00
2013,07,15,09,28,20.90
2013,07,15,09,29,20.80
2013,07,15,09,30,20.80
2013,07,15,09,31,20.80
2013,07,15,09,32,20.80
2013,07,15,09,33,20.80
2013,07,15,09,34,20.90
2013,07,15,09,35,21.00
2013,07,15,09,36,21.10
2013,07,15,09,37,21.20
2013,07,15,09,38,21.20
2013,07,15,09,39,21.30
2013,07,15,09,40,21.30
2013,07,15,09,41,21.30
2013,07,15,09,42,21.30
2013,07,15,09,43,21.30
2013,07,15,09,44,21.10
2013,07,15,09,45,21.10
2013,07,15,09,46,21.10
2013,07,15,09,47,21.20
2013,07,15,09,48,21.20
2013,07,15,09,49,21.20
2013,07,15,09,50,21.30
2013,07,15,09,51,21.40
2013,07,15,09,52,21.50
2013,07,15,09,53,21.60
2013,07,15,09,54,21.70
2013,07,15,09,55,21.70
2013,07,15,09,56,21.70
2013,07,15,09,57,21.70
2013,07,15,09,58,21.70
2013,07,15,09,59,21.80
2013,07,15,10,00,21.90
2013,07,15,10,01,22.00
2013,07,15,10,02,22.00
2013,07,15,10,03,22.00
2013,07,15,10,04,22.00
2013,07,15,10,05,22.10
2013,07,15,10,06,22.10
2013,07,15,10,07,22.20
2013,07,15,10,08,22.20
2013,07,15,10,09,22.30
2013,07,15,10,10,22.30
2013,07,15,10,11,22.40
2013,07,15,10,12,22.40
2013,07,15,10,13,22.40
2013,07,15,10,14,22.40
2013,07,15,10,15,22.40
2013,07,15,10,16,22.60
2013,07,15,10,17,22.70
2013,07,15,10,18,22.80
2013,07,15,10,19,22.80
2013,07,15,10,20,22.90
2013,07,15,10,21,22.90
2013,07,15,10,22,22.90
2013,07,15,10,23,23.00
2013,07,15,10,24,23.10
2013,07,15,10,25,23.10
2013,07,15,10,26,23.20
2013,07,15,10,27,23.20
2013,07,15,10,28,23.20
2013,07,15,10,29,23.20
2013,07,15,10,30,23.20
2013,07,15,10,31,23.30
2013,07,15,10,32,23.30
2013,07,15,10,33,23.30
2013,07,15,10,34,23.30
2013,07,15,10,35,23.30
2013,07,15,10,36,23.20
2013,07,15,10,37,23.20
2013,07,15,10,38,23.30
2013,07,15,10,39,23.30
2013,07,15,10,40,23.30
2013,07,15,10,41,23.20
2013,07,15,10,42,23.20
2013,07,15,10,43,23.30
2013,07,15,10,44,23.30
2013,07,15,10,45,23.30
2013,07,15,10,46,23.30
2013,07,15,10,47,23.30
2013,07,15,10,48,23.30
2013,07,15,10,49,23.30
2013,07,15,10,50,23.30
2013,07,15,10,51,23.30
2013,07,15,10,52,23.30
2013,07,15,10,53,23.30
2013,07,15,10,54,23.30
2013,07,15,10,55,23.30
2013,07,15,10,56,23.40
2013,07,15,10,57,23.60
2013,07,15,10,58,23.70
2013,07,15,10,59,23.60
2013,07,15,11,00,23.60
2013,07,15,11,01,23.60
2013,07,15,11,02,23.60
2013,07,15,11,03,23.50
2013,07,15,11,04,23.40
2013,07,15,11,05,23.40
2013,07,15,11,06,23.40
2013,07,15,11,07,23.50
2013,07,15,11,08,23.60
2013,07,15,11,09,23.70
2013,07,15,11,10,23.70
2013,07,15,11,11,23.80
2013,07,15,11,12,23.80
2013,07,15,11,13,23.80
2013,07,15,11,14,23.80
2013,07,15,11,15,23.90
2013,07,15,11,16,23.90
2013,07,15,11,17,24.00
2013,07,15,11,18,24.00
2013,07,15,11,19,23.90
2013,07,15,11,20,23.90
2013,07,15,11,21,23.80
2013,07,15,11,22,23.80
2013,07,15,11,23,23.90
2013,07,15,11,24,23.90
2013,07,15,11,25,23.90
2013,07,15,11,26,23.90
2013,07,15,11,27,23.90
2013,07,15,11,28,23.70
2013,07,15,11,29,23.70
2013,07,15,11,30,23.80
2013,07,15,11,31,23.80
2013,07,15,11,32,23.80
2013,07,15,11,33,23.90
2013,07,15,11,34,23.90
2013,07,15,11,35,23.90
2013,07,15,11,36,23.90
2013,07,15,11,37,23.70
2013,07,15,11,38,23.70
2013,07,15,11,39,23.70
2013,07,15,11,40,23.70
2013,07,15,11,41,23.80
2013,07,15,11,42,23.80
2013,07,15,11,43,23.90
2013,07,15,11,44,23.90
2013,07,15,11,45,23.90
2013,07,15,11,46,24.00
2013,07,15,11,47,24.10
2013,07,15,11,48,24.10
2013,07,15,11,49,24.10
2013,07,15,11,50,24.10
2013,07,15,11,51,24.10
2013,07,15,11,52,24.20
2013,07,15,11,53,24.20
2013,07,15,11,54,24.30
2013,07,15,11,55,24.40
2013,07,15,11,56,24.50
2013,07,15,11,57,24.60
2013,07,15,11,58,24.50
2013,07,15,11,59,24.40
2013,07,15,12,00,24.30
2013,07,15,12,01,24.30
2013,07,15,12,02,24.30
2013,07,15,12,03,24.30
2013,07,15,12,04,24.20
2013,07,15,12,05,24.30
2013,07,15,12,06,24.30
2013,07,15,12,07,24.40
2013,07,15,12,08,24.30
2013,07,15,12,09,24.30
2013,07,15,12,10,24.30
2013,07,15,12,11,24.30
2013,07,15,12,12,24.40
2013,07,15,12,13,24.40
2013,07,15,12,14,24.50
2013,07,15,12,15,24.50
2013,07,15,12,16,24.50
2013,07,15,12,17,24.50
2013,07,15,12,18,24.40
2013,07,15,12,19,24.40
2013,07,15,12,20,24.40
2013,07,15,12,21,24.50
2013,07,15,12,22,24.50
2013,07,15,12,23,24.60
2013,07,15,12,24,24.60
2013,07,15,12,25,24.50
2013,07,15,12,26,24.40
2013,07,15,12,27,24.40
2013,07,15,12,28,24.50
2013,07,15,12,29,24.50
2013,07,15,12,30,24.50
2013,07,15,12,31,24.40
2013,07,15,12,32,24.40
2013,07,15,12,33,24.40
2013,07,15,12,34,24.50
2013,07,15,12,35,24.50
2013,07,15,12,36,24.60
2013,07,15,12,37,24.60
2013,07,15,12,38,24.70
2013,07,15,12,39,24.70
2013,07,15,12,40,24.80
2013,07,15,12,41,24.80
2013,07,15,12,42,24.90
2013,07,15,12,43,24.90
2013,07,15,12,44,24.80
2013,07,15,12,45,24.80
2013,07,15,12,46,24.90
2013,07,15,12,47,24.90
2013,07,15,12,48,25.10
2013,07,15,12,49,25.10
2013,07,15,12,50,25.10
2013,07,15,12,51,25.20
2013,07,15,12,52,25.20
2013,07,15,12,53,25.30
2013,07,15,12,54,25.40
2013,07,15,12,55,25.40
2013,07,15,12,56,25.50
2013,07,15,12,57,25.60
2013,07,15,12,58,25.70
2013,07,15,12,59,25.70
2013,07,15,13,00,25.60
2013,07,15,13,01,25.60
2013,07,15,13,02,25.60
2013,07,15,13,03,25.60
2013,07,15,13,04,25.60
2013,07,15,13,05,25.60
2013,07,15,13,06,25.60
2013,07,15,13,07,25.70
2013,07,15,13,08,25.80
2013,07,15,13,09,25.80
2013,07,15,13,10,25.90
2013,07,15,13,11,25.90
2013,07,15,13,12,25.90
2013,07,15,13,13,25.80
2013,07,15,13,14,25.70
2013,07,15,13,15,25.70
2013,07,15,13,16,25.60
2013,07,15,13,17,25.50
2013,07,15,13,18,25.50
2013,07,15,13,19,25.50
2013,07,15,13,20,25.50
2013,07,15,13,21,25.60
2013,07,15,13,22,25.60
2013,07,15,13,23,25.60
2013,07,15,13,24,25.70
2013,07,15,13,25,25.70
2013,07,15,13,26,25.70
2013,07,15,13,27,25.80
2013,07,15,13,28,25.90
2013,07,15,13,29,25.90
2013,07,15,13,30,25.90
2013,07,15,13,31,25.80
2013,07,15,13,32,25.80
2013,07,15,13,33,25.80
2013,07,15,13,34,25.80
2013,07,15,13,35,25.80
2013,07,15,13,36,25.90
2013,07,15,13,37,25.80
2013,07,15,13,38,25.70
2013,07,15,13,39,25.60
2013,07,15,13,40,25.60
2013,07,15,13,41,25.50
2013,07,15,13,42,25.40
2013,07,15,13,43,25.40
2013,07,15,13,44,25.40
2013,07,15,13,45,25.50
2013,07,15,13,46,25.50
2013,07,15,13,47,25.50
2013,07,15,13,48,25.60
2013,07,15,13,49,25.70
2013,07,15,13,50,25.90
2013,07,15,13,51,26.00
2013,07,15,13,52,26.00
2013,07,15,13,53,26.10
2013,07,15,13,54,26.10
2013,07,15,13,55,26.20
2013,07,15,13,56,26.30
2013,07,15,13,57,26.30
2013,07,15,13,58,26.30
2013,07,15,13,59,26.30
2013,07,15,14,00,26.40
2013,07,15,14,01,26.60
2013,07,15,14,02,26.70
2013,07,15,14,03,26.70
2013,07,15,14,04,26.70
2013,07,15,14,05,26.60
2013,07,15,14,06,26.50
2013,07,15,14,07,26.40
2013,07,15,14,08,26.50
2013,07,15,14,09,26.50
2013,07,15,14,10,26.40
2013,07,15,14,11,26.30
2013,07,15,14,12,26.10
2013,07,15,14,13,26.00
2013,07,15,14,14,26.00
2013,07,15,14,15,26.00
2013,07,15,14,16,26.00
2013,07,15,14,17,25.90
2013,07,15,14,18,25.80
2013,07,15,14,19,25.90
2013,07,15,14,20,25.90
2013,07,15,14,21,25.80
2013,07,15,14,22,25.90
2013,07,15,14,23,25.90
2013,07,15,14,24,25.90
2013,07,15,14,25,25.80
2013,07,15,14,26,25.70
2013,07,15,14,27,25.80
2013,07,15,14,28,25.90
2013,07,15,14,29,25.90
2013,07,15,14,30,25.90
2013,07,15,14,31,25.90
2013,07,15,14,32,25.90
2013,07,15,14,33,25.90
2013,07,15,14,34,25.80
2013,07,15,14,35,25.80
2013,07,15,14,36,25.70
2013,07,15,14,37,25.80
2013,07,15,14,38,25.80
2013,07,15,14,39,25.90
2013,07,15,14,40,25.90
2013,07,15,14,41,26.10
2013,07,15,14,42,26.20
2013,07,15,14,43,26.30
2013,07,15,14,44,26.40
2013,07,15,14,45,26.50
2013,07,15,14,46,26.60
2013,07,15,14,47,26.60
2013,07,15,14,48,26.60
2013,07,15,14,49,26.60
2013,07,15,14,50,26.60
2013,07,15,14,51,26.60
2013,07,15,14,52,26.60
2013,07,15,14,53,26.60
2013,07,15,14,54,26.50
2013,07,15,14,55,26.40
2013,07,15,14,56,26.40
2013,07,15,14,57,26.40
2013,07,15,14,58,26.40
2013,07,15,14,59,26.50
2013,07,15,15,00,26.60
2013,07,15,15,01,26.70
2013,07,15,15,02,26.80
2013,07,15,15,03,27.00
2013,07,15,15,04,27.10
2013,07,15,15,05,27.10
2013,07,15,15,06,27.00
2013,07,15,15,07,26.80
2013,07,15,15,08,26.70
2013,07,15,15,09,26.60
2013,07,15,15,10,26.60
2013,07,15,15,11,26.60
2013,07,15,15,12,26.60
2013,07,15,15,13,26.70
2013,07,15,15,14,26.80
2013,07,15,15,15,26.80
2013,07,15,15,16,26.80
2013,07,15,15,17,26.90
2013,07,15,15,18,27.10
2013,07,15,15,19,27.10
2013,07,15,15,20,27.20
2013,07,15,15,21,27.30
2013,07,15,15,22,27.30
2013,07,15,15,23,27.30
2013,07,15,15,24,27.30
2013,07,15,15,25,27.30
2013,07,15,15,26,27.30
2013,07,15,15,27,27.30
2013,07,15,15,28,27.30
2013,07,15,15,29,27.30
2013,07,15,15,30,27.30
2013,07,15,15,31,27.30
2013,07,15,15,32,27.30
2013,07,15,15,33,27.30
2013,07,15,15,34,27.30
2013,07,15,15,35,27.30
2013,07,15,15,36,27.40
2013,07,15,15,37,27.40
2013,07,15,15,38,27.50
2013,07,15,15,39,27.50
2013,07,15,15,40,27.40
2013,07,15,15,41,27.40
2013,07,15,15,42,27.40
2013,07,15,15,43,27.50
2013,07,15,15,44,27.60
2013,07,15,15,45,27.60
2013,07,15,15,46,27.60
2013,07,15,15,47,27.60
2013,07,15,15,48,27.60
2013,07,15,15,49,27.70
2013,07,15,15,50,27.80
2013,07,15,15,51,27.90
2013,07,15,15,52,27.90
2013,07,15,15,53,28.00
2013,07,15,15,54,28.10
2013,07,15,15,55,28.10
2013,07,15,15,56,28.10
2013,07,15,15,57,28.00
2013,07,15,15,58,27.90
2013,07,15,15,59,27.90
2013,07,15,16,00,27.90
2013,07,15,16,01,27.90
2013,07,15,16,02,27.90
2013,07,15,16,03,28.00
2013,07,15,16,04,28.00
2013,07,15,16,05,28.00
2013,07,15,16,06,28.00
2013,07,15,16,07,28.00
2013,07,15,16,08,28.00
2013,07,15,16,09,28.00
2013,07,15,16,10,27.90
2013,07,15,16,11,27.90
2013,07,15,16,12,27.90
2013,07,15,16,13,28.00
2013,07,15,16,14,27.90
2013,07,15,16,15,27.90
2013,07,15,16,16,27.80
2013,07,15,16,17,27.70
2013,07,15,16,18,27.60
2013,07,15,16,19,27.60
2013,07,15,16,20,27.60
2013,07,15,16,21,27.60
2013,07,15,16,22,27.60
2013,07,15,16,23,27.60
2013,07,15,16,24,27.60
2013,07,15,16,25,27.70
2013,07,15,16,26,27.60
2013,07,15,16,27,27.60
2013,07,15,16,28,27.60
2013,07,15,16,29,27.70
2013,07,15,16,30,27.80
2013,07,15,16,31,27.90
2013,07,15,16,32,28.00
2013,07,15,16,33,28.10
2013,07,15,16,34,28.20
2013,07,15,16,35,28.20
2013,07,15,16,36,28.20
2013,07,15,16,37,28.20
2013,07,15,16,38,28.10
2013,07,15,16,39,28.10
2013,07,15,16,40,28.10
2013,07,15,16,41,28.10
2013,07,15,16,42,28.00
2013,07,15,16,43,28.10
2013,07,15,16,44,28.10
2013,07,15,16,45,28.10
2013,07,15,16,46,28.10
2013,07,15,16,47,28.10
2013,07,15,16,48,28.10
2013,07,15,16,49,28.10
2013,07,15,16,50,28.00
2013,07,15,16,51,27.90
2013,07,15,16,52,27.90
2013,07,15,16,53,27.80
2013,07,15,16,54,27.90
2013,07,15,16,55,27.90
2013,07,15,16,56,27.90
2013,07,15,16,57,28.00
2013,07,15,16,58,28.00
2013,07,15,16,59,27.90
2013,07,15,17,00,27.80
2013,07,15,17,01,27.70
2013,07,15,17,02,27.60
2013,07,15,17,03,27.60
2013,07,15,17,04,27.70
2013,07,15,17,05,27.70
2013,07,15,17,06,27.70
2013,07,15,17,07,27.80
2013,07,15,17,08,27.90
2013,07,15,17,09,27.80
2013,07,15,17,10,27.80
2013,07,15,17,11,27.70
2013,07,15,17,12,27.70
2013,07,15,17,13,27.70
2013,07,15,17,14,27.70
2013,07,15,17,15,27.70
2013,07,15,17,16,27.70
2013,07,15,17,17,27.70
2013,07,15,17,18,27.70
2013,07,15,17,19,27.70